UAL2464 KPBI-KDEN

Flight info

Callsign UAL2464
Flight time N/A
Altitude 34000
Route OLAKE3 JAYMC Y280 REDFN KH06I MARTA KF18E WALTO KK36A TOTOE HALEN NIIXX4
Aircraft B739/M-SDE2E3FGHIRWXY/LB1

Departure

Time 2026-04-14 16:41
Airport Palm Beach International Airport (KPBI)

Arrival

Time N/A
Airport Denver International Airport (KDEN)
Time Latitude Longitude Altitude Speed Heading
2026-04-14 16:26 26.68719 -80.09203 21 ft 0 kts 317°
2026-04-14 16:30 26.68711 -80.09194 21 ft 4 kts 313°
2026-04-14 16:31 26.68694 -80.09171 22 ft 4 kts 297°
2026-04-14 16:31 26.68685 -80.09143 21 ft 4 kts 278°
2026-04-14 16:31 26.68685 -80.09114 21 ft 4 kts 249°
2026-04-14 16:31 26.68692 -80.09099 23 ft 0 kts 230°
2026-04-14 16:35 26.68689 -80.09104 22 ft 3 kts 230°
2026-04-14 16:35 26.68663 -80.09137 21 ft 8 kts 229°
2026-04-14 16:35 26.68615 -80.09195 22 ft 12 kts 227°
2026-04-14 16:36 26.68554 -80.09270 21 ft 13 kts 227°
2026-04-14 16:36 26.68493 -80.09344 21 ft 13 kts 227°
2026-04-14 16:36 26.68447 -80.09386 21 ft 8 kts 193°
2026-04-14 16:36 26.68413 -80.09376 21 ft 4 kts 158°
2026-04-14 16:37 26.68388 -80.09379 21 ft 4 kts 207°
2026-04-14 16:37 26.68372 -80.09407 22 ft 6 kts 251°
2026-04-14 16:37 26.68372 -80.09478 21 ft 12 kts 273°
2026-04-14 16:37 26.68377 -80.09595 21 ft 17 kts 273°
2026-04-14 16:38 26.68384 -80.09738 21 ft 20 kts 272°
2026-04-14 16:38 26.68391 -80.09893 21 ft 20 kts 273°
2026-04-14 16:38 26.68398 -80.10046 21 ft 19 kts 273°
2026-04-14 16:38 26.68404 -80.10191 21 ft 18 kts 273°
2026-04-14 16:39 26.68411 -80.10331 21 ft 18 kts 272°
2026-04-14 16:39 26.68414 -80.10467 20 ft 17 kts 271°
2026-04-14 16:39 26.68421 -80.10597 20 ft 17 kts 273°
2026-04-14 16:39 26.68427 -80.10723 20 ft 16 kts 273°
2026-04-14 16:40 26.68428 -80.10799 20 ft 9 kts 255°
2026-04-14 16:40 26.68378 -80.10824 20 ft 9 kts 177°
2026-04-14 16:40 26.68326 -80.10799 20 ft 8 kts 126°
2026-04-14 16:40 26.68318 -80.10741 20 ft 7 kts 94°
2026-04-14 16:41 26.68313 -80.10640 20 ft 33 kts 93°
2026-04-14 16:41 26.68290 -80.10099 21 ft 106 kts 92°
2026-04-14 16:41 26.68250 -80.09054 32 ft 160 kts 91°
2026-04-14 16:41 26.68193 -80.07801 789 ft 160 kts 93°
2026-04-14 16:42 26.68134 -80.06537 1762 ft 170 kts 91°
2026-04-14 16:42 26.68248 -80.05158 2657 ft 195 kts 83°
2026-04-14 16:42 26.68063 -80.03531 2988 ft 221 kts 98°
2026-04-14 16:42 26.67951 -80.01835 3745 ft 220 kts 92°
2026-04-14 16:43 26.68049 -80.00084 4165 ft 231 kts 71°
2026-04-14 16:43 26.68970 -79.98566 4560 ft 249 kts 40°
2026-04-14 16:43 26.70583 -79.97765 5186 ft 258 kts 15°
2026-04-14 16:43 26.72364 -79.97384 6012 ft 264 kts 13°
2026-04-14 16:44 26.74210 -79.97046 6703 ft 274 kts 12°
2026-04-14 16:44 26.76120 -79.96776 7409 ft 281 kts
2026-04-14 16:44 26.78050 -79.97222 8149 ft 292 kts 336°
2026-04-14 16:45 26.80541 -80.00870 9622 ft 310 kts 290°
2026-04-14 16:45 26.81238 -80.03174 10345 ft 317 kts 289°
2026-04-14 16:45 26.81960 -80.05608 10580 ft 342 kts 289°
2026-04-14 16:45 26.82745 -80.08211 10785 ft 365 kts 289°
2026-04-14 16:46 26.83576 -80.10956 11149 ft 377 kts 289°
2026-04-14 16:46 26.84425 -80.13740 11930 ft 375 kts 289°
2026-04-14 16:46 26.85274 -80.16513 12599 ft 377 kts 289°
2026-04-14 16:46 26.86126 -80.19289 13369 ft 375 kts 289°
2026-04-14 16:47 26.86978 -80.22052 14027 ft 378 kts 289°
2026-04-14 16:47 26.87839 -80.24851 14500 ft 384 kts 289°
2026-04-14 16:47 26.88723 -80.27722 15056 ft 386 kts 289°
2026-04-14 16:47 26.89587 -80.30531 15668 ft 386 kts 290°
2026-04-14 16:48 26.90462 -80.33374 16258 ft 388 kts 290°
2026-04-14 16:48 26.91321 -80.36202 16982 ft 385 kts 289°
2026-04-14 16:48 26.91897 -80.39151 17462 ft 391 kts 279°
2026-04-14 16:48 26.92219 -80.42203 17880 ft 398 kts 277°
2026-04-14 16:49 26.92499 -80.45342 18359 ft 401 kts 278°
2026-04-14 16:49 26.92784 -80.48477 18797 ft 404 kts 278°
2026-04-14 16:49 26.93086 -80.51618 19242 ft 406 kts 278°
2026-04-14 16:49 26.93405 -80.54762 19736 ft 407 kts 278°
2026-04-14 16:50 26.93737 -80.57923 20163 ft 410 kts 278°
2026-04-14 16:50 26.94071 -80.61061 20621 ft 412 kts 278°
2026-04-14 16:50 26.94418 -80.64294 21064 ft 414 kts 278°
2026-04-14 16:50 26.94761 -80.67505 21525 ft 415 kts 278°
2026-04-14 16:51 26.95105 -80.70730 21949 ft 418 kts 278°
2026-04-14 16:51 26.95445 -80.73923 22386 ft 419 kts 278°
2026-04-14 16:51 26.95790 -80.77187 22787 ft 422 kts 278°
2026-04-14 16:51 26.96047 -80.80477 23187 ft 425 kts 275°
2026-04-14 16:52 26.96191 -80.83837 23602 ft 428 kts 273°
2026-04-14 16:52 26.96293 -80.87173 23978 ft 429 kts 273°
2026-04-14 16:52 26.96391 -80.90526 24327 ft 431 kts 273°
2026-04-14 16:52 26.96498 -80.93886 24714 ft 431 kts 273°
2026-04-14 16:53 26.96613 -80.97227 25065 ft 433 kts 273°
2026-04-14 16:53 26.96738 -81.00611 25382 ft 435 kts 273°
2026-04-14 16:53 26.96868 -81.04004 25725 ft 437 kts 273°
2026-04-14 16:53 26.96955 -81.06262 25949 ft 438 kts 273°
2026-04-14 16:54 26.97087 -81.09680 26291 ft 440 kts 273°
2026-04-14 16:54 26.97218 -81.13116 26625 ft 442 kts 273°
2026-04-14 16:54 26.97351 -81.16609 26967 ft 443 kts 273°
2026-04-14 16:54 26.97479 -81.20026 27282 ft 445 kts 273°
2026-04-14 16:55 26.97609 -81.23499 27609 ft 447 kts 273°
2026-04-14 16:55 26.97737 -81.26967 27912 ft 449 kts 273°
2026-04-14 16:55 26.97866 -81.30472 28172 ft 452 kts 273°
2026-04-14 16:55 26.98005 -81.34047 28381 ft 455 kts 275°
2026-04-14 16:56 26.98611 -81.37471 28752 ft 453 kts 290°
2026-04-14 16:56 27.00023 -81.40605 29276 ft 449 kts 302°
2026-04-14 16:56 27.01696 -81.43527 29758 ft 448 kts 303°
2026-04-14 16:56 27.03404 -81.46450 30110 ft 449 kts 303°
2026-04-14 16:57 27.05122 -81.49394 30471 ft 449 kts 302°
2026-04-14 16:57 27.06815 -81.52326 30899 ft 447 kts 302°
2026-04-14 16:57 27.08491 -81.55259 31368 ft 444 kts 302°
2026-04-14 16:57 27.10140 -81.58165 31751 ft 443 kts 302°
2026-04-14 16:58 27.11789 -81.61084 32123 ft 443 kts 302°
2026-04-14 16:58 27.13435 -81.64007 32509 ft 442 kts 302°
2026-04-14 16:58 27.15076 -81.66921 32891 ft 441 kts 302°
2026-04-14 16:58 27.16717 -81.69838 33149 ft 443 kts 302°
2026-04-14 16:59 27.18362 -81.72762 33503 ft 442 kts 302°
2026-04-14 16:59 27.20001 -81.75676 33891 ft 440 kts 302°
2026-04-14 16:59 27.21635 -81.78584 34209 ft 440 kts 303°
2026-04-14 16:59 27.23277 -81.81507 34240 ft 444 kts 303°
2026-04-14 17:00 27.26564 -81.87365 34255 ft 441 kts 301°
2026-04-14 17:00 27.29137 -81.93551 34262 ft 435 kts 285°